User: anonymous   Login
Location: Casco Millpond
(44.5581°N, 87.6111°W)
Time: 05:29:16
(UTC+00:00)
Language:

UNK - Orbit

View from above orbital plane
View from above orbital plane
View from above satellite
View from above satellite

Ground track
Ground track

The orbit is defined by the following mean orbital elements,

1 27940U          26075.23166450 +.00000000 +00000-0 +11971-3 0 00004
2 27940  98.3821 250.7464 0011920 291.6986  68.2949 14.69378592    09
Epoch (UTC): 16 March 2026 05:33:35
Eccentricity: 0.0011920
inclination: 98.3821°
perigee height: 655 km
apogee height: 671 km
right ascension of ascending node: 250.7464°
argument of perigee: 291.6986°
revolutions per day: 14.69378592
mean anomaly at epoch: 68.2949°

The dashed part of the orbit path shows where the satellite is in the earth's shadow,  

DLR